timestamp,wind_dir_avg,wind_spd_max_dir,wind_spd_avg,wind_spd_gust,battery_voltage,lat,long
2018-10-19 00:00:00+00:00,256.0,253.0,10.8,12.74,,47.59359,-54.27349
2018-10-19 00:10:00+00:00,254.0,259.0,11.96,12.99,,47.59359,-54.27349
2018-10-19 00:20:00+00:00,258.0,256.0,11.73,13.12,,47.59359,-54.27349
2018-10-19 00:30:00+00:00,263.0,265.0,11.17,12.02,,47.59359,-54.27349
2018-10-19 00:40:00+00:00,261.0,261.0,10.23,11.54,,47.59359,-54.27349
2018-10-19 00:50:00+00:00,257.0,258.0,10.21,12.17,,47.59359,-54.27349
2018-10-19 01:00:00+00:00,258.0,255.0,11.72,13.09,,47.59359,-54.27349
2018-10-19 01:10:00+00:00,250.0,252.0,10.04,11.63,,47.59359,-54.27349
2018-10-19 01:20:00+00:00,247.0,251.0,10.6,12.5,,47.59359,-54.27349
2018-10-19 01:30:00+00:00,250.0,248.0,10.57,12.92,,47.59359,-54.27349
2018-10-19 01:40:00+00:00,255.0,261.0,9.58,10.9,,47.59359,-54.27349
2018-10-19 01:50:00+00:00,258.0,253.0,10.3,12.83,,47.59359,-54.27349
2018-10-19 02:00:00+00:00,253.0,253.0,11.27,12.77,,47.59359,-54.27349
2018-10-19 02:10:00+00:00,258.0,257.0,12.19,13.12,,47.59359,-54.27349
2018-10-19 02:20:00+00:00,260.0,259.0,12.8,14.74,,47.59359,-54.27349
2018-10-19 02:30:00+00:00,266.0,268.0,10.09,11.71,,47.59359,-54.27349
2018-10-19 02:40:00+00:00,287.0,286.0,12.59,15.21,,47.59359,-54.27349
2018-10-19 02:50:00+00:00,282.0,287.0,10.37,12.47,,47.59359,-54.27349
2018-10-19 03:00:00+00:00,291.0,297.0,10.46,12.53,,47.59359,-54.27349
2018-10-19 03:10:00+00:00,289.0,293.0,11.91,14.67,,47.59359,-54.27349
2018-10-19 03:20:00+00:00,287.0,280.0,10.44,12.36,,47.59359,-54.27349
2018-10-19 03:30:00+00:00,279.0,276.0,13.37,14.29,,47.59359,-54.27349
2018-10-19 03:40:00+00:00,292.0,288.0,9.27,11.15,,47.59359,-54.27349
2018-10-19 03:50:00+00:00,295.0,290.0,10.03,13.11,,47.59359,-54.27349
2018-10-19 04:00:00+00:00,296.0,295.0,9.11,10.38,,47.59359,-54.27349
2018-10-19 04:10:00+00:00,306.0,311.0,8.76,10.58,,47.59359,-54.27349
2018-10-19 04:20:00+00:00,311.0,311.0,10.37,13.23,,47.59359,-54.27349
2018-10-19 04:30:00+00:00,305.0,307.0,9.73,11.15,,47.59359,-54.27349
2018-10-19 04:40:00+00:00,298.0,302.0,8.38,9.71,,47.59359,-54.27349
2018-10-19 04:50:00+00:00,299.0,305.0,9.27,10.79,,47.59359,-54.27349
2018-10-19 05:00:00+00:00,303.0,307.0,9.01,10.87,,47.59359,-54.27349
2018-10-19 05:10:00+00:00,297.0,301.0,9.83,12.45,,47.59359,-54.27349
2018-10-19 05:20:00+00:00,304.0,308.0,8.82,10.26,,47.59359,-54.27349
2018-10-19 05:30:00+00:00,303.0,306.0,8.51,9.75,,47.59359,-54.27349
2018-10-19 05:40:00+00:00,304.0,296.0,8.1,10.1,,47.59359,-54.27349
2018-10-19 05:50:00+00:00,299.0,298.0,8.77,10.7,,47.59359,-54.27349
2018-10-19 06:00:00+00:00,308.0,311.0,10.44,13.33,,47.59359,-54.27349
2018-10-19 06:10:00+00:00,307.0,308.0,10.11,11.89,,47.59359,-54.27349
2018-10-19 06:20:00+00:00,305.0,312.0,9.51,10.81,,47.59359,-54.27349
2018-10-19 06:30:00+00:00,303.0,303.0,9.43,11.69,,47.59359,-54.27349
2018-10-19 06:40:00+00:00,297.0,296.0,8.54,9.41,,47.59359,-54.27349
2018-10-19 06:50:00+00:00,312.0,313.0,7.75,9.78,,47.59359,-54.27349
2018-10-19 07:00:00+00:00,305.0,296.0,9.2,11.61,,47.59359,-54.27349
2018-10-19 07:10:00+00:00,299.0,298.0,9.63,11.47,,47.59359,-54.27349
2018-10-19 07:20:00+00:00,300.0,299.0,9.98,11.95,,47.59359,-54.27349
2018-10-19 07:30:00+00:00,306.0,307.0,9.26,12.04,,47.59359,-54.27349
2018-10-19 07:40:00+00:00,303.0,300.0,12.46,15.0,,47.59359,-54.27349
2018-10-19 07:50:00+00:00,302.0,303.0,12.64,13.9,,47.59359,-54.27349
2018-10-19 08:00:00+00:00,316.0,311.0,10.96,12.63,,47.59359,-54.27349
2018-10-19 08:10:00+00:00,308.0,305.0,9.42,11.61,,47.59359,-54.27349
2018-10-19 08:20:00+00:00,309.0,308.0,9.98,12.88,,47.59359,-54.27349
2018-10-19 08:30:00+00:00,318.0,323.0,11.07,13.22,,47.59359,-54.27349
2018-10-19 08:40:00+00:00,316.0,316.0,11.05,13.99,,47.59359,-54.27349
2018-10-19 08:50:00+00:00,319.0,315.0,10.06,12.7,,47.59359,-54.27349
2018-10-19 09:00:00+00:00,320.0,320.0,10.08,12.52,,47.59359,-54.27349
2018-10-19 09:10:00+00:00,321.0,319.0,11.86,14.04,,47.59359,-54.27349
2018-10-19 09:20:00+00:00,316.0,310.0,8.48,11.36,,47.59359,-54.27349
2018-10-19 09:30:00+00:00,304.0,306.0,10.81,13.61,,47.59359,-54.27349
2018-10-19 09:40:00+00:00,311.0,303.0,9.06,12.54,,47.59359,-54.27349
2018-10-19 09:50:00+00:00,309.0,308.0,9.23,10.98,,47.59359,-54.27349
2018-10-19 10:00:00+00:00,310.0,308.0,8.13,10.32,,47.59359,-54.27349
2018-10-19 10:10:00+00:00,311.0,311.0,8.11,9.48,,47.59359,-54.27349
2018-10-19 10:20:00+00:00,321.0,318.0,7.98,9.19,,47.59359,-54.27349
2018-10-19 10:30:00+00:00,307.0,306.0,8.1,10.16,,47.59359,-54.27349
2018-10-19 10:40:00+00:00,310.0,312.0,7.69,10.71,,47.59359,-54.27349
2018-10-19 10:50:00+00:00,310.0,303.0,7.17,8.81,,47.59359,-54.27349
2018-10-19 11:00:00+00:00,315.0,312.0,7.29,8.55,,47.59359,-54.27349
2018-10-19 11:10:00+00:00,314.0,310.0,8.26,9.68,,47.59359,-54.27349
2018-10-19 11:20:00+00:00,327.0,329.0,7.35,8.11,,47.59359,-54.27349
2018-10-19 11:30:00+00:00,316.0,327.0,8.04,10.96,,47.59359,-54.27349
2018-10-19 11:40:00+00:00,318.0,319.0,6.03,6.84,,47.59359,-54.27349
2018-10-19 11:50:00+00:00,313.0,323.0,7.38,8.55,,47.59359,-54.27349
2018-10-19 12:00:00+00:00,329.0,321.0,6.53,9.04,,47.59359,-54.27349
2018-10-19 12:10:00+00:00,322.0,323.0,7.51,8.63,,47.59359,-54.27349
2018-10-19 12:20:00+00:00,319.0,325.0,7.18,8.01,,47.59359,-54.27349
2018-10-19 12:30:00+00:00,323.0,317.0,8.0,10.26,,47.59359,-54.27349
2018-10-19 12:40:00+00:00,330.0,328.0,6.41,7.71,,47.59359,-54.27349
2018-10-19 12:50:00+00:00,326.0,334.0,6.77,7.94,,47.59359,-54.27349
2018-10-19 13:00:00+00:00,322.0,320.0,6.63,7.88,,47.59359,-54.27349
2018-10-19 13:10:00+00:00,322.0,322.0,7.01,8.47,,47.59359,-54.27349
2018-10-19 13:20:00+00:00,312.0,313.0,7.59,8.85,,47.59359,-54.27349
2018-10-19 13:30:00+00:00,325.0,329.0,6.2,7.04,,47.59359,-54.27349
2018-10-19 13:40:00+00:00,325.0,323.0,6.84,8.14,,47.59359,-54.27349
2018-10-19 13:50:00+00:00,337.0,348.0,6.02,7.43,,47.59359,-54.27349
2018-10-19 14:00:00+00:00,336.0,334.0,7.75,8.86,,47.59359,-54.27349
2018-10-19 14:10:00+00:00,337.0,326.0,6.84,7.94,,47.59359,-54.27349
2018-10-19 14:20:00+00:00,341.0,350.0,6.07,6.96,,47.59359,-54.27349
2018-10-19 14:30:00+00:00,345.0,342.0,6.02,6.58,,47.59359,-54.27349
2018-10-19 14:40:00+00:00,351.0,349.0,8.17,9.48,,47.59359,-54.27349
2018-10-19 14:50:00+00:00,7.0,15.0,5.74,7.3,,47.59359,-54.27349
2018-10-19 15:00:00+00:00,331.0,329.0,6.81,7.7,,47.59359,-54.27349
2018-10-19 15:10:00+00:00,356.0,4.0,4.79,5.6,,47.59359,-54.27349
2018-10-19 15:20:00+00:00,2.0,9.0,3.51,4.36,,47.59359,-54.27349
2018-10-19 15:30:00+00:00,356.0,0.0,4.98,6.02,,47.59359,-54.27349
2018-10-19 15:40:00+00:00,327.0,327.0,2.28,3.0,,47.59359,-54.27349
2018-10-19 15:50:00+00:00,341.0,338.0,2.81,3.63,,47.59359,-54.27349
2018-10-19 16:00:00+00:00,291.0,286.0,1.86,2.54,,47.59359,-54.27349
2018-10-19 16:10:00+00:00,322.0,317.0,2.08,2.74,,47.59359,-54.27349
2018-10-19 16:20:00+00:00,316.0,315.0,3.24,3.71,,47.59359,-54.27349
2018-10-19 16:30:00+00:00,291.0,301.0,3.29,4.02,,47.59359,-54.27349
2018-10-19 16:40:00+00:00,333.0,331.0,2.05,2.66,,47.59359,-54.27349
2018-10-19 16:50:00+00:00,304.0,302.0,1.25,2.05,,47.59359,-54.27349
2018-10-19 17:00:00+00:00,312.0,327.0,2.1,2.82,,47.59359,-54.27349
2018-10-19 17:10:00+00:00,303.0,295.0,1.74,2.09,,47.59359,-54.27349
2018-10-19 17:20:00+00:00,315.0,325.0,1.47,1.96,,47.59359,-54.27349
2018-10-19 17:30:00+00:00,332.0,338.0,2.14,2.48,,47.59359,-54.27349
2018-10-19 17:40:00+00:00,354.0,356.0,4.72,5.99,,47.59359,-54.27349
2018-10-19 17:50:00+00:00,33.0,32.0,3.02,3.66,,47.59359,-54.27349
2018-10-19 18:00:00+00:00,43.0,50.0,1.95,2.57,,47.59359,-54.27349
2018-10-19 18:10:00+00:00,98.0,93.0,0.65,1.05,,47.59359,-54.27349
2018-10-19 18:20:00+00:00,316.0,319.0,3.06,4.1,,47.59359,-54.27349
2018-10-19 18:30:00+00:00,279.0,286.0,3.11,3.78,,47.59359,-54.27349
2018-10-19 18:40:00+00:00,248.0,244.0,4.38,4.87,,47.59359,-54.27349
2018-10-19 18:50:00+00:00,230.0,240.0,2.6,2.95,,47.59359,-54.27349
2018-10-19 19:00:00+00:00,226.0,228.0,2.97,3.96,,47.59359,-54.27349
2018-10-19 19:10:00+00:00,289.0,301.0,1.47,1.99,,47.59359,-54.27349
2018-10-19 19:20:00+00:00,231.0,237.0,1.51,2.0,,47.59359,-54.27349
2018-10-19 19:30:00+00:00,224.0,218.0,2.25,2.77,,47.59359,-54.27349
2018-10-19 19:40:00+00:00,223.0,221.0,2.66,3.08,,47.59359,-54.27349
2018-10-19 19:50:00+00:00,231.0,229.0,1.88,2.21,,47.59359,-54.27349
2018-10-19 20:00:00+00:00,242.0,243.0,2.78,3.21,,47.59359,-54.27349
2018-10-19 20:10:00+00:00,235.0,231.0,2.82,3.19,,47.59359,-54.27349
2018-10-19 20:20:00+00:00,344.0,345.0,3.18,3.76,,47.59359,-54.27349
2018-10-19 20:30:00+00:00,17.0,14.0,1.52,2.13,,47.59359,-54.27349
2018-10-19 20:40:00+00:00,18.0,24.0,1.57,2.04,,47.59359,-54.27349
2018-10-19 20:50:00+00:00,326.0,315.0,0.73,1.27,,47.59359,-54.27349
2018-10-19 21:00:00+00:00,286.0,275.0,1.71,2.77,,47.59359,-54.27349
2018-10-19 21:10:00+00:00,293.0,281.0,1.57,1.99,,47.59359,-54.27349
2018-10-19 21:20:00+00:00,288.0,288.0,1.97,2.42,,47.59359,-54.27349
2018-10-19 21:30:00+00:00,332.0,294.0,0.28,0.49,,47.59359,-54.27349
2018-10-19 21:40:00+00:00,52.0,76.0,0.5,0.75,,47.59359,-54.27349
2018-10-19 21:50:00+00:00,15.0,338.0,0.62,1.05,,47.59359,-54.27349
2018-10-19 22:00:00+00:00,80.0,87.0,0.73,1.09,,47.59359,-54.27349
2018-10-19 22:10:00+00:00,132.0,134.0,1.17,1.5,,47.59359,-54.27349
2018-10-19 22:20:00+00:00,113.0,103.0,0.78,0.99,,47.59359,-54.27349
2018-10-19 22:30:00+00:00,260.0,258.0,2.58,3.35,,47.59359,-54.27349
2018-10-19 22:40:00+00:00,248.0,246.0,1.24,1.56,,47.59359,-54.27349
2018-10-19 22:50:00+00:00,275.0,277.0,1.23,1.59,,47.59359,-54.27349
2018-10-19 23:00:00+00:00,306.0,304.0,2.77,3.18,,47.59359,-54.27349
2018-10-19 23:10:00+00:00,280.0,283.0,4.7,5.3,,47.59359,-54.27349
2018-10-19 23:20:00+00:00,272.0,266.0,4.72,5.35,,47.59359,-54.27349
2018-10-19 23:30:00+00:00,274.0,276.0,4.84,5.67,,47.59359,-54.27349
2018-10-19 23:40:00+00:00,273.0,271.0,4.67,5.24,,47.59359,-54.27349
2018-10-19 23:50:00+00:00,264.0,258.0,5.44,6.25,,47.59359,-54.27349
